Location: Zerbst
(51.9650°N, 12.0766°E)
Time: 06:19:39
(UTC+01:00)

ISS - Pass Details

Date: 21 May 2017
Orbit: 402 x 406 km, 51.6° (Epoch: 18 December)

Event Time Altitude Azimuth Distance (km) Brightness Sun altitude
Exits shadow 01:25:58 58° 199° (SSW) 495 -3.8 -17.8°
Maximum altitude 01:26:18 63° 164° (SSE) 472 -3.9 -17.7°
Drops below altitude 10° 01:29:38 10° 83° (E) 1,497 -0.8 -17.7°
Sets 01:31:44 0° 80° (E) 2,358 0.3 -17.7°
